Location: Poigny-la-Forêt
(48.6876°N, 1.7701°E)
Time: 14:46:20
(UTC+02:00)

ISS - Pass Details

Date: 22 March 2019
Orbit: 408 x 410 km, 51.6° (Epoch: 24 April)

Event Time Altitude Azimuth Distance (km) Brightness Sun altitude
Rises 21:05:51 0° 233° (SW) 2,328 0.4 -19.6°
Reaches altitude 10° 21:07:58 10° 229° (SW) 1,469 -0.7 -19.9°
Enters shadow 21:10:03 34° 210° (SSW) 701 -2.7 -20.2°
